Probability
10 16 19 29 23 29 39 39 42 35 39 26 23 23 26 26 23 39 45 39 45 48 42 39 45 48 45 48 52 55 55 48 48 58 68 68 71 71 61 61 61 48 68
6 13 26 19 32 26 29 29 39 42 19 23 23 23 23 26 29 39 42 45 39 35 42 35 39 39 42 39 52 45 45 42 42 42 48 48 58 61 71 71 68 61 61
16 16 19 29 23 23 26 23 26 23 19 23 26 23 23 23 23 23 29 35 39 29 35 35 35 35 39 35 35 42 39 32 35 35 39 42 45 58 52 61 48 55 58
13 13 10 29 26 23 26 26 19 19 19 26 23 19 16 19 19 26 32 32 35 35 35 32 35 32 35 35 39 42 32 29 26 23 23 29 42 52 48 42 48 48 45
13 13 13 23 26 23 16 19 19 19 19 16 16 13 16 23 19 16 23 29 32 32 35 35 32 32 29 29 29 39 32 23 19 23 29 42 52 45 48 48 48 45 52
13 10 10 23 23 13 23 19 16 16 16 19 19 19 16 16 19 19 23 23 23 29 32 32 26 19 19 23 29 32 29 13 19 23 32 39 42 45 45 42 52 52 48
10 6 3 19 19 19 19 23 23 19 13 19 16 19 19 16 16 19 26 26 23 29 29 29 23 23 19 23 19 19 19 13 10 19 26 35 35 42 48 42 45 48 48
0 3 6 13 16 16 16 19 23 16 13 16 16 19 19 19 13 16 19 26 19 26 23 29 19 16 23 23 19 16 19 13 6 10 29 39 35 35 35 35 45 42 48
0 3 3 3 6 13 10 13 10 13 6 10 13 16 16 19 13 10 13 16 19 19 19 16 16 16 19 26 23 19 16 10 13 19 10 32 35 26 35 32 42 35 35
0 3 3 3 3 6 6 3 3 6 6 6 10 13 10 13 10 10 13 13 16 13 13 13 13 16 23 19 19 3 6 10 10 13 26 29 26 35 32 29 35 39 35
0 3 0 3 3 3 3 3 3 3 0 0 0 0 0 0 0 0 0 6 10 13 16 13 10 16 16 13 10 6 6 3 16 23 19 23 23 29 29 32 42 39 35
0 0 0 0 0 0 0 3 3 0 0 0 0 0 0 0 0 0 0 3 6 10 13 10 10 3 10 13 6 6 6 3 10 13 13 13 16 16 23 23 23 26 26
0 0 0 0 0 0 3 3 3 0 0 0 0 0 0 0 0 0 0 0 3 0 6 3 0 3 6 10 13 10 10 3 3 13 13 16 16 16 13 19 19 19 19
0 0 0 0 0 0 0 3 3 3 0 0 0 0 0 0 0 0 0 3 3 6 3 0 3 0 0 0 3 3 0 0 0 3 16 13 16 13 13 13 13 13 10
0 0 0 0 0 0 0 0 3 3 0 0 3 0 0 3 0 0 3 3 3 3 0 0 0 0 0 0 0 0 0 0 0 0 6 6 10 13 13 10 10 10 13
0 0 0 0 0 0 0 0 0 0 0 0 0 0 0 0 0 3 3 3 3 0 0 6 0 0 3 3 0 0 0 0 0 0 6 3 10 13 13 3 6 6 10
0 0 0 0 0 0 0 0 0 0 0 0 0 0 0 0 3 3 3 3 0 3 0 3 0 0 0 0 0 0 0 0 0 0 3 3 3 6 13 10 3 6 6
0 0 0 0 0 0 0 0 0 0 0 0 0 3 3 3 3 3 3 3 0 0 3 3 0 3 0 0 3 0 0 6 3 0 3 3 3 3 3 6 6 6 6
0 0 0 0 0 0 0 0 0 0 0 0 0 3 3 0 0 3 3 3 0 3 3 0 3 3 3 3 0 6 3 3 3 0 3 3 3 3 3 3 3 6 6
0 0 0 0 0 0 0 0 3 0 0 0 0 3 3 3 0 0 0 0 3 6 3 6 6 6 6 3 0 0 3 3 0 0 0 3 3 0 0 0 0 0 3
0 0 0 0 0 0 0 0 0 0 0 0 3 0 3 3 0 3 0 3 10 6 6 3 6 10 6 3 3 3 0 0 3 0 0 0 0 0 0 0 0 0 3
3 3 0 0 0 0 3 3 3 0 0 3 6 6 0 0 3 0 3 3 6 13 10 13 13 3 3 3 0 0 0 0 0 0 6 0 0 3 0 0 0 0 0
3 3 0 0 0 0 3 3 3 3 3 3 3 6 3 3 3 3 3 6 6 3 13 10 10 6 6 0 0 0 0 0 0 0 3 0 3 3 3 3 0 0 0
3 3 0 0 0 0 3 3 3 3 3 3 3 6 3 0 0 0 0 0 3 0 3 0 10 10 6 10 3 0 0 0 0 0 0 0 0 0 3 0 0 0 0
3 3 3 0 0 0 3 3 3 3 3 3 3 3 0 0 0 0 0 0 0 0 0 0 0 0 6 6 6 3 3 0 3 0 0 0 0 0 0 3 0 0 0
3 3 3 0 0 3 3 3 3 3 3 3 3 6 0 0 0 0 0 0 0 0 0 0 0 0 0 3 3 3 3 6 3 0 3 0 3 0 0 3 0 0 0
Height
5888 5887 5887 5886 5886 5885 5885 5884 5884 5883 5883 5882 5881 5881 5880 5880 5880 5879 5879 5878 5878 5878 5878 5878 5878 5879 5879 5879 5880 5880 5881 5881 5882 5882 5883 5884 5884 5885 5885 5886 5886 5887 5887
5887 5887 5886 5886 5885 5884 5884 5883 5883 5883 5882 5881 5881 5880 5879 5879 5879 5879 5878 5878 5878 5878 5878 5878 5878 5878 5878 5879 5879 5880 5880 5881 5881 5882 5882 5883 5884 5884 5885 5885 5885 5886 5886
5887 5886 5885 5885 5885 5884 5884 5883 5883 5882 5881 5881 5880 5880 5879 5878 5878 5878 5878 5878 5877 5877 5877 5877 5877 5878 5878 5878 5879 5879 5879 5880 5880 5881 5881 5882 5882 5883 5884 5884 5885 5885 5885
5886 5885 5885 5884 5884 5883 5883 5882 5882 5881 5881 5880 5880 5879 5878 5878 5878 5877 5877 5877 5877 5877 5877 5877 5877 5877 5877 5877 5878 5878 5878 5879 5879 5880 5880 5881 5881 5882 5882 5883 5883 5884 5884
5885 5884 5884 5883 5883 5882 5882 5882 5881 5880 5880 5879 5879 5878 5878 5877 5877 5876 5876 5876 5876 5876 5876 5876 5876 5876 5876 5876 5877 5877 5877 5878 5878 5878 5879 5879 5880 5880 5881 5882 5882 5883 5883
5883 5883 5883 5882 5882 5882 5881 5881 5880 5879 5879 5878 5878 5877 5877 5876 5876 5875 5875 5875 5875 5875 5875 5875 5875 5875 5875 5875 5876 5876 5876 5876 5877 5877 5878 5878 5879 5879 5880 5880 5881 5881 5881
5882 5882 5881 5881 5881 5881 5880 5879 5879 5878 5878 5877 5877 5876 5875 5875 5874 5874 5874 5874 5873 5873 5873 5873 5874 5874 5874 5874 5875 5875 5875 5875 5875 5876 5876 5877 5877 5878 5878 5879 5879 5880 5880
5881 5880 5880 5880 5880 5879 5879 5878 5878 5877 5877 5876 5875 5875 5874 5874 5873 5873 5872 5872 5872 5872 5872 5872 5872 5873 5873 5873 5873 5874 5874 5874 5874 5874 5875 5876 5876 5876 5877 5877 5878 5878 5878
5879 5879 5879 5878 5878 5878 5877 5877 5876 5875 5875 5875 5874 5874 5873 5873 5872 5872 5871 5871 5871 5871 5871 5871 5871 5871 5871 5872 5872 5872 5873 5873 5873 5873 5873 5874 5874 5875 5875 5875 5876 5876 5876
5877 5877 5877 5877 5876 5876 5876 5876 5875 5874 5874 5873 5873 5872 5872 5871 5871 5870 5870 5870 5870 5870 5869 5870 5870 5870 5870 5870 5870 5871 5871 5871 5871 5872 5872 5872 5872 5873 5873 5874 5874 5874 5875
5875 5875 5875 5875 5875 5874 5874 5874 5873 5873 5872 5872 5872 5871 5870 5870 5869 5869 5869 5868 5868 5868 5868 5868 5868 5869 5869 5869 5869 5869 5869 5869 5870 5870 5870 5870 5871 5871 5871 5872 5872 5872 5872
5873 5873 5873 5873 5873 5872 5872 5872 5871 5871 5870 5870 5870 5870 5869 5868 5868 5868 5867 5867 5867 5867 5867 5867 5867 5867 5867 5867 5867 5867 5868 5868 5868 5868 5868 5869 5869 5869 5870 5870 5870 5870 5870
5871 5871 5871 5871 5870 5870 5870 5870 5869 5869 5869 5869 5869 5868 5868 5867 5867 5866 5866 5866 5866 5865 5865 5865 5865 5865 5865 5865 5866 5866 5866 5866 5867 5867 5867 5867 5868 5868 5868 5868 5868 5868 5868
5869 5869 5869 5869 5868 5868 5868 5868 5868 5867 5867 5867 5867 5867 5866 5866 5865 5865 5865 5864 5864 5864 5864 5864 5864 5863 5864 5864 5864 5864 5864 5865 5865 5865 5866 5866 5866 5866 5866 5866 5866 5867 5867
5867 5867 5866 5867 5867 5866 5866 5867 5866 5866 5866 5865 5865 5865 5865 5864 5864 5863 5863 5863 5863 5862 5862 5862 5862 5862 5862 5863 5863 5863 5863 5864 5864 5864 5864 5864 5864 5864 5864 5864 5864 5864 5864
5865 5864 5864 5864 5864 5864 5864 5865 5865 5864 5864 5864 5864 5863 5863 5863 5862 5862 5861 5861 5861 5861 5861 5861 5861 5861 5861 5861 5862 5862 5862 5862 5862 5863 5863 5863 5863 5862 5862 5862 5862 5862 5862
5863 5862 5862 5862 5862 5862 5862 5863 5863 5862 5862 5862 5862 5862 5861 5861 5861 5860 5860 5860 5859 5859 5859 5859 5859 5859 5860 5860 5861 5861 5861 5861 5861 5861 5861 5861 5861 5861 5861 5860 5860 5860 5860
5861 5861 5860 5860 5860 5860 5860 5860 5861 5860 5860 5860 5860 5860 5860 5859 5859 5859 5858 5858 5858 5858 5858 5858 5858 5858 5858 5859 5859 5860 5860 5860 5859 5860 5860 5860 5859 5859 5858 5858 5857 5857 5858
5859 5859 5859 5858 5858 5858 5858 5858 5858 5858 5858 5858 5858 5858 5858 5858 5857 5857 5857 5857 5856 5857 5857 5857 5857 5857 5857 5858 5858 5858 5858 5858 5858 5858 5858 5858 5858 5857 5856 5855 5854 5854 5855
5858 5857 5857 5856 5856 5856 5857 5857 5857 5857 5856 5856 5856 5856 5856 5856 5856 5856 5855 5855 5855 5855 5855 5855 5856 5856 5856 5856 5857 5857 5857 5856 5857 5856 5856 5856 5856 5855 5854 5853 5851 5851 5853
5856 5856 5855 5855 5855 5855 5855 5855 5855 5855 5855 5855 5855 5855 5855 5855 5854 5854 5854 5854 5854 5854 5854 5854 5854 5855 5855 5855 5855 5855 5855 5855 5855 5855 5855 5854 5854 5854 5853 5852 5851 5850 5851
5855 5854 5854 5853 5853 5853 5854 5854 5854 5854 5854 5854 5854 5853 5853 5853 5853 5853 5853 5853 5853 5853 5853 5853 5853 5853 5854 5854 5854 5854 5854 5855 5854 5854 5853 5853 5853 5852 5851 5851 5850 5850 5850
5854 5853 5852 5852 5852 5852 5852 5852 5852 5853 5853 5853 5852 5852 5852 5852 5852 5852 5852 5852 5852 5852 5852 5852 5852 5852 5852 5853 5853 5853 5853 5853 5853 5853 5852 5852 5851 5850 5850 5849 5849 5849 5849
5853 5852 5851 5851 5851 5851 5851 5851 5851 5852 5852 5852 5851 5851 5851 5851 5851 5851 5851 5851 5851 5851 5851 5851 5851 5851 5851 5851 5852 5852 5852 5852 5852 5851 5851 5850 5850 5849 5848 5848 5847 5847 5847
5851 5851 5851 5850 5850 5850 5850 5850 5850 5851 5851 5851 5851 5851 5851 5851 5850 5850 5850 5850 5850 5850 5850 5850 5850 5850 5850 5850 5851 5851 5850 5850 5850 5850 5850 5849 5848 5848 5847 5846 5846 5845 5844
5850 5850 5850 5849 5849 5849 5849 5849 5850 5850 5850 5850 5850 5850 5850 5850 5850 5850 5850 5849 5849 5849 5850 5849 5849 5849 5849 5849 5849 5849 5849 5849 5849 5848 5848 5847 5847 5846 5845 5845 5844 5843 5843
Wind_Speed
1 1 1 1 1 1 1 1 1 1 1 1 0 1 1 0 1 1 1 1 1 1 1 2 3 3 4 4 5 6 7 7 7 7 7 7 7 7 7 7 7 7 7
1 1 1 1 1 1 1 1 1 1 1 1 1 1 1 1 1 2 1 1 1 2 2 2 3 4 5 5 5 6 6 7 7 7 7 8 8 7 8 8 8 8 7
2 2 2 2 2 2 2 2 2 2 2 2 2 2 2 2 2 2 2 2 2 2 3 3 4 4 6 6 6 6 6 6 7 7 7 8 8 8 8 8 9 8 8
2 2 2 2 2 3 3 3 3 3 3 2 2 3 3 2 3 3 3 3 3 2 2 3 4 5 6 7 6 6 6 7 8 8 7 8 8 9 9 8 9 8 8
3 3 3 3 3 3 4 3 3 4 3 3 3 3 4 3 3 3 4 4 3 3 3 4 4 5 6 7 7 7 7 7 8 8 8 8 8 9 9 9 9 9 9
5 4 4 3 3 4 4 4 4 4 4 4 4 5 5 5 4 4 4 4 4 4 4 4 5 5 6 7 7 7 7 7 8 8 8 8 8 9 9 9 9 10 10
6 5 5 5 4 4 5 5 5 5 5 5 5 5 5 5 5 5 4 4 5 5 5 5 5 5 5 7 8 8 8 8 8 8 8 9 9 9 9 9 10 10 11
6 7 6 6 5 6 5 5 5 5 5 5 6 5 5 5 5 5 5 5 5 6 5 5 5 6 6 7 8 8 8 8 8 8 8 9 10 10 9 9 10 10 11
7 7 8 8 7 7 6 5 5 6 6 6 6 5 5 5 5 5 5 6 6 5 5 5 5 7 7 7 7 8 8 8 8 8 8 9 10 10 10 10 10 11 11
8 8 9 9 8 7 7 6 6 6 6 6 6 5 5 6 6 6 6 6 6 5 5 5 5 6 7 7 7 7 8 8 8 9 9 9 10 10 10 10 11 11 11
9 9 9 9 8 8 7 7 7 6 7 7 6 6 6 6 6 6 6 6 6 6 6 5 6 6 7 7 7 7 8 8 8 8 8 9 9 9 10 11 11 11 12
10 9 9 9 9 8 7 7 8 7 6 6 6 6 6 6 6 6 6 6 6 6 7 7 7 7 7 7 8 8 8 8 8 8 8 8 8 9 9 9 10 11 11
10 10 9 9 9 9 8 8 7 7 6 6 6 5 5 6 6 6 6 6 6 6 6 7 7 6 7 7 7 8 8 8 8 7 7 7 7 8 8 8 9 10 10
9 10 9 9 8 8 8 8 7 6 6 6 6 6 6 6 6 6 6 6 6 6 6 7 7 7 6 6 6 7 7 7 7 7 7 6 7 8 7 8 9 9 10
9 9 10 9 8 8 9 8 8 7 8 7 7 6 6 6 6 6 5 6 6 6 7 7 6 6 6 6 6 6 6 6 6 7 6 6 7 8 8 8 9 10 10
9 9 10 9 9 9 8 8 9 8 8 8 7 7 7 6 6 6 6 5 6 6 6 6 5 5 5 6 6 6 6 6 7 7 7 8 8 9 9 9 10 9 9
9 9 9 8 9 9 8 8 9 9 8 8 8 8 7 7 7 6 6 5 6 5 5 5 5 5 6 6 6 6 6 7 7 7 7 8 8 8 9 9 10 10 10
8 8 8 8 8 8 8 9 9 8 8 8 8 7 6 7 7 6 6 6 6 6 6 5 5 5 6 6 6 6 7 7 7 7 7 7 8 8 8 8 10 10 10
9 9 7 8 7 8 8 8 8 8 8 8 8 7 6 6 6 6 6 7 6 6 6 6 5 6 5 6 6 6 7 7 7 7 7 7 7 7 7 7 9 10 10
8 9 8 9 8 7 7 7 7 7 8 7 7 7 6 6 6 6 6 6 6 6 6 6 6 6 6 6 6 6 6 7 7 7 6 6 6 6 6 7 6 7 9
7 8 8 8 7 7 7 7 7 7 6 6 6 6 6 6 6 5 5 5 5 5 6 6 6 6 6 6 6 6 6 6 6 6 6 6 5 5 6 6 5 5 6
6 6 6 6 6 6 7 7 6 6 6 6 6 6 6 5 5 5 4 4 5 4 5 5 6 6 6 6 6 6 6 6 5 5 5 6 5 6 6 6 6 6 6
5 5 5 4 5 5 6 6 6 5 5 5 4 4 4 4 4 4 4 4 3 3 4 4 5 5 5 6 5 5 5 5 4 4 5 5 5 6 6 6 6 6 7
5 5 5 5 4 4 5 5 5 5 4 4 4 4 3 3 3 3 3 3 3 4 4 4 4 4 4 5 5 5 5 5 5 5 6 6 7 7 7 7 6 7 8
6 6 6 5 5 5 5 5 5 5 4 4 3 3 3 3 3 3 3 3 3 3 3 4 5 5 4 5 5 5 5 5 6 6 7 7 7 7 6 7 8 8 8
6 6 6 5 5 5 5 5 5 5 4 4 4 4 4 3 3 3 3 3 3 3 4 4 4 5 5 5 5 5 6 6 6 7 7 7 7 6 7 7 8 8 8
Wind_Direction
339 347 344 10 34 50 48 17 324 334 360 20 107 147 156 183 268 306 310 314 234 214 214 211 215 198 194 197 206 206 210 213 210 211 211 211 213 216 220 224 225 225 225
322 339 294 295 337 343 342 334 309 309 300 301 305 274 286 292 273 276 273 297 255 230 239 227 207 194 203 204 207 208 213 217 214 218 217 216 218 220 223 228 230 230 235
299 309 308 291 289 301 303 315 323 309 296 306 322 307 302 300 294 286 276 284 287 267 246 229 223 208 210 213 216 218 220 220 217 221 222 223 222 223 226 229 232 232 237
288 296 297 285 277 276 279 291 291 285 285 295 310 307 306 302 292 280 265 268 275 281 260 240 230 221 225 224 224 224 226 223 223 226 227 225 223 224 226 229 232 234 238
278 275 271 273 274 272 265 275 279 283 283 283 288 294 296 304 295 281 267 263 267 264 256 244 236 234 234 229 229 229 232 234 234 231 229 230 226 225 228 231 234 238 239
273 263 261 269 275 272 274 274 280 288 288 283 284 288 289 298 295 274 268 266 264 259 254 245 241 240 233 229 229 230 236 240 242 237 233 230 228 227 230 233 235 239 238
269 262 259 269 276 277 275 274 277 285 287 286 285 285 290 295 294 278 269 269 266 259 254 251 244 244 235 232 231 234 236 239 240 238 235 231 230 232 234 235 235 238 239
263 260 256 264 271 276 279 283 282 280 280 282 282 283 289 289 288 287 278 272 269 263 258 251 246 243 244 239 235 236 236 236 238 238 236 236 234 235 238 238 239 241 240
261 259 258 261 266 273 276 282 285 283 278 278 281 285 288 285 283 283 282 275 270 259 253 250 249 244 244 241 242 238 238 240 240 241 238 238 239 240 241 241 242 244 244
263 262 262 260 260 267 271 273 275 277 277 276 275 281 286 284 276 275 278 274 266 258 255 249 247 245 248 248 243 238 238 240 237 240 241 241 244 244 244 244 247 249 250
265 267 264 258 255 260 267 268 269 270 273 272 276 277 282 283 277 274 272 269 265 262 256 254 249 247 249 251 246 240 241 238 236 239 239 241 242 245 244 245 248 251 252
268 268 268 258 254 256 259 262 267 268 268 268 275 280 282 286 283 277 270 264 258 257 258 258 254 252 244 244 243 244 244 240 237 236 239 240 239 244 245 248 249 251 251
272 269 264 259 257 257 255 258 262 265 266 272 280 284 281 282 280 275 268 265 259 254 254 255 257 252 243 240 238 242 241 240 239 238 239 242 240 242 246 249 250 250 249
272 271 266 259 257 255 251 254 261 265 270 278 282 285 283 280 276 271 264 262 261 256 252 253 255 254 244 237 242 244 240 237 241 239 239 244 243 244 249 252 253 249 247
274 270 266 262 254 250 248 253 260 263 266 275 278 278 280 280 275 272 264 259 259 255 249 249 255 252 238 236 244 249 242 237 241 244 249 251 252 251 251 252 252 249 249
276 274 268 265 258 252 251 255 260 261 264 266 267 269 274 279 279 274 266 260 255 248 252 249 250 246 238 235 239 246 243 240 241 246 252 256 257 256 253 252 253 251 252
277 278 271 266 261 255 257 259 261 261 264 263 264 266 269 272 270 269 260 256 251 250 251 245 242 242 237 231 234 241 242 241 245 252 256 258 260 260 257 256 253 251 253
280 283 270 266 260 256 257 260 262 262 265 266 263 264 268 268 266 267 264 259 254 250 251 249 249 243 235 232 235 240 245 244 252 256 258 262 267 268 262 259 254 249 252
286 284 271 266 267 262 261 264 264 264 266 269 263 258 264 267 268 269 268 267 260 259 258 257 256 243 235 237 242 248 252 251 252 258 260 264 268 271 271 271 263 253 251
287 282 273 268 268 265 261 260 263 265 268 266 263 257 258 266 269 272 272 271 264 260 256 254 248 245 245 244 249 255 261 260 256 259 265 266 269 276 275 274 268 256 252
286 284 279 272 269 267 259 256 261 265 266 265 270 273 264 271 273 269 268 267 265 262 256 249 239 242 248 250 252 255 261 261 253 257 261 264 265 274 280 276 269 256 250
290 296 287 272 264 258 255 257 262 270 265 266 271 278 265 267 272 263 261 264 262 258 249 241 236 242 251 252 253 254 260 256 249 250 258 261 263 275 279 273 267 257 253
291 298 292 280 264 258 253 255 255 259 264 265 265 272 273 266 263 256 260 254 252 246 241 239 239 241 250 252 254 256 254 250 256 259 265 265 272 280 279 275 263 261 263
286 295 299 279 264 263 260 256 251 258 268 267 269 278 283 267 251 255 260 251 244 241 238 242 253 248 251 256 256 256 259 257 265 267 272 275 278 281 281 273 267 266 268
280 282 289 287 269 265 256 252 261 261 257 257 267 278 281 279 255 256 267 260 251 244 240 250 253 257 255 253 256 258 263 264 269 275 277 277 277 276 275 276 275 269 268
284 280 281 278 270 260 256 258 260 259 255 252 256 269 278 275 262 261 266 270 262 252 250 256 259 262 257 256 259 263 267 271 279 281 279 277 274 273 273 272 274 271 268